Time,TemperatureF,DewpointF,PressureIn,WindDirection,WindDirectionDegrees,WindSpeedMPH,WindSpeedGustMPH,Humidity,HourlyPrecipIn,Conditions,Clouds,dailyrainin,SoftwareType,DateUTC
2016-09-28 00:03:00,49.4,27.8,30.03,WNW,295,2.0,5.0,43,0.00,,,0.00,Wunderground v.1.15,2016-09-28 06:03:00,
2016-09-28 00:09:00,49.2,28.2,30.03,WNW,303,3.0,5.0,44,0.00,,,0.00,Wunderground v.1.15,2016-09-28 06:09:00,
2016-09-28 00:15:00,49.3,28.3,30.02,WNW,302,3.0,4.0,44,0.00,,,0.00,Wunderground v.1.15,2016-09-28 06:15:00,
2016-09-28 00:21:00,49.3,28.3,30.02,NW,305,3.0,3.0,44,0.00,,,0.00,Wunderground v.1.15,2016-09-28 06:21:00,
2016-09-28 00:27:00,49.4,28.4,30.02,NW,307,3.0,3.0,44,0.00,,,0.00,Wunderground v.1.15,2016-09-28 06:27:00,
2016-09-28 00:33:00,49.5,28.5,30.02,NW,309,2.0,2.0,44,0.00,,,0.00,Wunderground v.1.15,2016-09-28 06:33:00,
2016-09-28 00:39:00,49.2,28.7,30.03,NW,307,1.0,2.0,45,0.00,,,0.00,Wunderground v.1.15,2016-09-28 06:39:00,
2016-09-28 00:45:00,48.9,28.5,30.03,NW,307,2.0,3.0,45,0.00,,,0.00,Wunderground v.1.15,2016-09-28 06:45:00,
2016-09-28 00:51:00,49.5,28.5,30.03,NW,305,3.0,3.0,44,0.00,,,0.00,Wunderground v.1.15,2016-09-28 06:51:00,
2016-09-28 00:57:00,49.6,28.6,30.03,WNW,292,3.0,4.0,44,0.00,,,0.00,Wunderground v.1.15,2016-09-28 06:57:00,
2016-09-28 01:03:00,49.5,28.5,30.02,WNW,293,3.0,4.0,44,0.00,,,0.00,Wunderground v.1.15,2016-09-28 07:03:00,
2016-09-28 01:09:00,49.2,28.2,30.03,WNW,294,3.0,4.0,44,0.00,,,0.00,Wunderground v.1.15,2016-09-28 07:09:00,
2016-09-28 01:15:00,49.2,28.2,30.03,WNW,297,3.0,4.0,44,0.00,,,0.00,Wunderground v.1.15,2016-09-28 07:15:00,
2016-09-28 01:21:00,49.5,27.9,30.03,WNW,302,3.0,3.0,43,0.00,,,0.00,Wunderground v.1.15,2016-09-28 07:21:00,
2016-09-28 01:27:00,49.4,27.8,30.03,WNW,293,2.0,3.0,43,0.00,,,0.00,Wunderground v.1.15,2016-09-28 07:27:00,
2016-09-28 01:33:00,49.4,27.8,30.03,WNW,290,1.0,2.0,43,0.00,,,0.00,Wunderground v.1.15,2016-09-28 07:33:00,
2016-09-28 01:39:00,49.6,27.4,30.03,WNW,290,0.0,2.0,42,0.00,,,0.00,Wunderground v.1.15,2016-09-28 07:39:00,
2016-09-28 01:52:00,49.8,27.6,30.03,WNW,296,1.0,2.0,42,0.00,,,0.00,Wunderground v.1.15,2016-09-28 07:52:00,
2016-09-28 01:57:00,49.5,27.9,30.03,WNW,290,2.0,4.0,43,0.00,,,0.00,Wunderground v.1.15,2016-09-28 07:57:00,
2016-09-28 02:03:00,50.0,27.8,30.03,WNW,294,3.0,3.0,42,0.00,,,0.00,Wunderground v.1.15,2016-09-28 08:03:00,
2016-09-28 02:09:00,50.4,28.1,30.03,WNW,298,2.0,3.0,42,0.00,,,0.00,Wunderground v.1.15,2016-09-28 08:09:00,
2016-09-28 02:15:00,50.0,28.4,30.03,WNW,297,2.0,2.0,43,0.00,,,0.00,Wunderground v.1.15,2016-09-28 08:15:00,
2016-09-28 02:22:00,49.6,28.6,30.04,WNW,292,3.0,3.0,44,0.00,,,0.00,Wunderground v.1.15,2016-09-28 08:22:00,
2016-09-28 02:27:00,50.1,28.4,30.04,WNW,293,2.0,3.0,43,0.00,,,0.00,Wunderground v.1.15,2016-09-28 08:27:00,
2016-09-28 02:34:00,50.4,28.1,30.04,WNW,293,1.0,1.0,42,0.00,,,0.00,Wunderground v.1.15,2016-09-28 08:34:00,
2016-09-28 02:40:00,50.3,28.1,30.03,WNW,292,0.0,1.0,42,0.00,,,0.00,Wunderground v.1.15,2016-09-28 08:40:00,
2016-09-28 02:46:00,49.6,28.0,30.03,WNW,297,1.0,2.0,43,0.00,,,0.00,Wunderground v.1.15,2016-09-28 08:46:00,
2016-09-28 02:52:00,49.7,28.1,30.04,WNW,294,2.0,2.0,43,0.00,,,0.00,Wunderground v.1.15,2016-09-28 08:52:00,
2016-09-28 02:58:00,49.3,28.3,30.04,WNW,297,2.0,3.0,44,0.00,,,0.00,Wunderground v.1.15,2016-09-28 08:58:00,
2016-09-28 03:03:00,49.0,28.6,30.03,WNW,301,3.0,3.0,45,0.00,,,0.00,Wunderground v.1.15,2016-09-28 09:03:00,
2016-09-28 03:10:00,49.3,28.3,30.03,WNW,294,3.0,3.0,44,0.00,,,0.00,Wunderground v.1.15,2016-09-28 09:10:00,
2016-09-28 03:16:00,49.7,28.6,30.03,WNW,298,3.0,3.0,44,0.00,,,0.00,Wunderground v.1.15,2016-09-28 09:16:00,
2016-09-28 03:22:00,50.0,28.4,30.03,WNW,300,2.0,2.0,43,0.00,,,0.00,Wunderground v.1.15,2016-09-28 09:22:00,
2016-09-28 03:28:00,50.2,28.5,30.03,WNW,298,1.0,2.0,43,0.00,,,0.00,Wunderground v.1.15,2016-09-28 09:28:00,
2016-09-28 03:34:00,50.4,28.7,30.03,WNW,291,1.0,1.0,43,0.00,,,0.00,Wunderground v.1.15,2016-09-28 09:34:00,
2016-09-28 03:40:00,50.3,28.6,30.04,WNW,291,1.0,1.0,43,0.00,,,0.00,Wunderground v.1.15,2016-09-28 09:40:00,
2016-09-28 03:46:00,50.3,28.6,30.04,WNW,290,1.0,1.0,43,0.00,,,0.00,Wunderground v.1.15,2016-09-28 09:46:00,
2016-09-28 03:52:00,49.8,28.2,30.04,WNW,294,1.0,2.0,43,0.00,,,0.00,Wunderground v.1.15,2016-09-28 09:52:00,
2016-09-28 03:58:00,49.2,28.2,30.04,WNW,291,2.0,3.0,44,0.00,,,0.00,Wunderground v.1.15,2016-09-28 09:58:00,
2016-09-28 04:04:00,49.3,28.3,30.04,WNW,294,3.0,3.0,44,0.00,,,0.00,Wunderground v.1.15,2016-09-28 10:04:00,
2016-09-28 04:10:00,49.3,28.3,30.04,WNW,297,3.0,3.0,44,0.00,,,0.00,Wunderground v.1.15,2016-09-28 10:10:00,
2016-09-28 04:16:00,49.0,28.6,30.04,WNW,294,2.0,2.0,45,0.00,,,0.00,Wunderground v.1.15,2016-09-28 10:16:00,
2016-09-28 04:22:00,49.9,28.3,30.04,West,281,2.0,2.0,43,0.00,,,0.00,Wunderground v.1.15,2016-09-28 10:22:00,
2016-09-28 04:28:00,50.1,28.4,30.04,West,264,1.0,2.0,43,0.00,,,0.00,Wunderground v.1.15,2016-09-28 10:28:00,
2016-09-28 04:34:00,49.6,28.0,30.04,ENE,75,0.0,1.0,43,0.00,,,0.00,Wunderground v.1.15,2016-09-28 10:34:00,
2016-09-28 04:40:00,49.3,28.3,30.04,WNW,283,1.0,2.0,44,0.00,,,0.00,Wunderground v.1.15,2016-09-28 10:40:00,
2016-09-28 04:46:00,49.1,28.1,30.04,NW,304,1.0,3.0,44,0.00,,,0.00,Wunderground v.1.15,2016-09-28 10:46:00,
2016-09-28 04:52:00,48.0,28.2,30.04,WNW,292,2.0,3.0,46,0.00,,,0.00,Wunderground v.1.15,2016-09-28 10:52:00,
2016-09-28 04:58:00,47.7,27.9,30.04,WNW,300,3.0,3.0,46,0.00,,,0.00,Wunderground v.1.15,2016-09-28 10:58:00,
2016-09-28 05:04:00,48.0,27.6,30.05,WSW,254,3.0,3.0,45,0.00,,,0.00,Wunderground v.1.15,2016-09-28 11:04:00,
2016-09-28 05:10:00,49.0,28.0,30.04,West,263,1.0,3.0,44,0.00,,,0.00,Wunderground v.1.15,2016-09-28 11:10:00,
2016-09-28 05:16:00,49.1,28.1,30.05,WNW,283,0.0,2.0,44,0.00,,,0.00,Wunderground v.1.15,2016-09-28 11:16:00,
2016-09-28 05:22:00,49.0,28.0,30.04,WNW,295,1.0,3.0,44,0.00,,,0.00,Wunderground v.1.15,2016-09-28 11:22:00,
2016-09-28 05:28:00,48.4,28.0,30.05,WNW,297,3.0,3.0,45,0.00,,,0.00,Wunderground v.1.15,2016-09-28 11:28:00,
2016-09-28 05:34:00,48.1,28.3,30.05,WNW,297,2.0,2.0,46,0.00,,,0.00,Wunderground v.1.15,2016-09-28 11:34:00,
2016-09-28 05:40:00,47.6,28.3,30.05,WNW,298,2.0,3.0,47,0.00,,,0.00,Wunderground v.1.15,2016-09-28 11:40:00,
2016-09-28 05:46:00,47.8,28.0,30.05,WNW,288,2.0,2.0,46,0.00,,,0.00,Wunderground v.1.15,2016-09-28 11:46:00,
2016-09-28 05:52:00,48.5,27.6,30.05,West,281,2.0,2.0,44,0.00,,,0.00,Wunderground v.1.15,2016-09-28 11:52:00,
2016-09-28 05:57:00,49.2,27.6,30.05,West,269,0.0,2.0,43,0.00,,,0.00,Wunderground v.1.15,2016-09-28 11:57:00,
2016-09-28 06:04:00,49.3,27.7,30.05,West,267,0.0,0.0,43,0.00,,,0.00,Wunderground v.1.15,2016-09-28 12:04:00,
2016-09-28 06:10:00,49.1,27.5,30.05,West,271,0.0,1.0,43,0.00,,,0.00,Wunderground v.1.15,2016-09-28 12:10:00,
2016-09-28 06:16:00,48.3,27.4,30.05,WNW,287,1.0,2.0,44,0.00,,,0.00,Wunderground v.1.15,2016-09-28 12:16:00,
2016-09-28 06:22:00,47.7,27.4,30.05,WNW,298,2.0,2.0,45,0.00,,,0.00,Wunderground v.1.15,2016-09-28 12:22:00,
2016-09-28 06:27:00,46.9,27.7,30.05,NW,307,3.0,5.0,47,0.00,,,0.00,Wunderground v.1.15,2016-09-28 12:27:00,
2016-09-28 06:34:00,47.0,27.8,30.05,NW,305,4.0,5.0,47,0.00,,,0.00,Wunderground v.1.15,2016-09-28 12:34:00,
2016-09-28 06:40:00,46.9,27.7,30.05,WNW,293,4.0,5.0,47,0.00,,,0.00,Wunderground v.1.15,2016-09-28 12:40:00,
2016-09-28 06:45:00,47.1,27.9,30.05,WNW,301,4.0,4.0,47,0.00,,,0.00,Wunderground v.1.15,2016-09-28 12:45:00,
2016-09-28 06:51:00,47.3,28.1,30.05,NW,305,3.0,3.0,47,0.00,,,0.00,Wunderground v.1.15,2016-09-28 12:51:00,
2016-09-28 06:57:00,47.4,27.6,30.06,WNW,290,3.0,4.0,46,0.00,,,0.00,Wunderground v.1.15,2016-09-28 12:57:00,
2016-09-28 07:04:00,48.1,27.7,30.06,WNW,296,3.0,4.0,45,0.00,,,0.00,Wunderground v.1.15,2016-09-28 13:04:00,
2016-09-28 07:10:00,48.5,27.6,30.06,WNW,302,3.0,4.0,44,0.00,,,0.00,Wunderground v.1.15,2016-09-28 13:10:00,
2016-09-28 07:15:00,49.2,27.6,30.06,WNW,298,3.0,3.0,43,0.00,,,0.00,Wunderground v.1.15,2016-09-28 13:15:00,
2016-09-28 07:21:00,50.1,27.9,30.06,WNW,300,2.0,2.0,42,0.00,,,0.00,Wunderground v.1.15,2016-09-28 13:21:00,
2016-09-28 07:28:00,50.7,27.8,30.06,WNW,300,1.0,2.0,41,0.00,,,0.00,Wunderground v.1.15,2016-09-28 13:28:00,
2016-09-28 07:33:00,51.4,27.9,30.07,WNW,300,0.0,0.0,40,0.00,,,0.00,Wunderground v.1.15,2016-09-28 13:33:00,
2016-09-28 07:39:00,51.8,27.6,30.07,WNW,300,0.0,0.0,39,0.00,,,0.00,Wunderground v.1.15,2016-09-28 13:39:00,
2016-09-28 07:45:00,51.4,27.9,30.07,WNW,300,0.0,0.0,40,0.00,,,0.00,Wunderground v.1.15,2016-09-28 13:45:00,
2016-09-28 07:51:00,50.9,28.0,30.07,WNW,300,0.0,0.0,41,0.00,,,0.00,Wunderground v.1.15,2016-09-28 13:51:00,
2016-09-28 07:57:00,51.1,28.2,30.07,WNW,300,0.0,0.0,41,0.00,,,0.00,Wunderground v.1.15,2016-09-28 13:57:00,
2016-09-28 08:03:00,52.2,28.6,30.07,ENE,76,0.0,0.0,40,0.00,,,0.00,Wunderground v.1.15,2016-09-28 14:03:00,
2016-09-28 08:09:00,53.3,28.3,30.08,ENE,70,0.0,0.0,38,0.00,,,0.00,Wunderground v.1.15,2016-09-28 14:09:00,
2016-09-28 08:15:00,54.1,28.4,30.08,ENE,64,0.0,0.0,37,0.00,,,0.00,Wunderground v.1.15,2016-09-28 14:15:00,
2016-09-28 08:21:00,55.2,28.0,30.08,SE,135,0.0,1.0,35,0.00,,,0.00,Wunderground v.1.15,2016-09-28 14:21:00,
2016-09-28 08:27:00,55.5,29.6,30.08,ENE,75,1.0,1.0,37,0.00,,,0.00,Wunderground v.1.15,2016-09-28 14:27:00,
2016-09-28 08:33:00,55.0,28.5,30.08,East,80,1.0,3.0,36,0.00,,,0.00,Wunderground v.1.15,2016-09-28 14:33:00,
2016-09-28 08:45:00,54.1,27.7,30.08,East,80,2.0,3.0,36,0.00,,,0.00,Wunderground v.1.15,2016-09-28 14:45:00,
2016-09-28 08:51:00,53.6,27.9,30.08,East,82,2.0,2.0,37,0.00,,,0.00,Wunderground v.1.15,2016-09-28 14:51:00,
2016-09-28 08:57:00,54.2,27.8,30.08,ENE,64,2.0,4.0,36,0.00,,,0.00,Wunderground v.1.15,2016-09-28 14:57:00,
2016-09-28 09:03:00,54.3,27.9,30.08,SE,127,2.0,2.0,36,0.00,,,0.00,Wunderground v.1.15,2016-09-28 15:03:00,
2016-09-28 09:09:00,55.5,29.6,30.08,ENE,72,1.0,2.0,37,0.00,,,0.00,Wunderground v.1.15,2016-09-28 15:09:00,
2016-09-28 09:15:00,56.4,29.1,30.08,SE,124,1.0,3.0,35,0.00,,,0.00,Wunderground v.1.15,2016-09-28 15:15:00,
2016-09-28 09:21:00,56.8,28.7,30.08,ESE,117,2.0,2.0,34,0.00,,,0.00,Wunderground v.1.15,2016-09-28 15:21:00,
2016-09-28 09:27:00,57.0,28.9,30.08,ESE,113,2.0,2.0,34,0.00,,,0.00,Wunderground v.1.15,2016-09-28 15:27:00,
2016-09-28 09:33:00,57.5,28.6,30.07,SSE,162,2.0,4.0,33,0.00,,,0.00,Wunderground v.1.15,2016-09-28 15:33:00,
2016-09-28 09:39:00,57.0,28.1,30.07,SE,134,3.0,4.0,33,0.00,,,0.00,Wunderground v.1.15,2016-09-28 15:39:00,
2016-09-28 09:45:00,57.1,28.2,30.07,ENE,76,3.0,3.0,33,0.00,,,0.00,Wunderground v.1.15,2016-09-28 15:45:00,
2016-09-28 09:52:00,56.8,28.0,30.07,ESE,105,3.0,3.0,33,0.00,,,0.00,Wunderground v.1.15,2016-09-28 15:52:00,
2016-09-28 10:03:00,57.2,28.3,30.07,SE,134,3.0,3.0,33,0.00,,,0.00,Wunderground v.1.15,2016-09-28 16:03:00,
2016-09-28 10:09:00,56.9,29.5,30.08,SE,125,3.0,4.0,35,0.00,,,0.00,Wunderground v.1.15,2016-09-28 16:09:00,
2016-09-28 10:15:00,56.7,28.6,30.07,ESE,107,3.0,4.0,34,0.00,,,0.00,Wunderground v.1.15,2016-09-28 16:15:00,
2016-09-28 10:22:00,57.1,29.0,30.07,SE,131,3.0,3.0,34,0.00,,,0.00,Wunderground v.1.15,2016-09-28 16:22:00,
2016-09-28 10:27:00,57.3,28.4,30.07,SSE,150,3.0,4.0,33,0.00,,,0.00,Wunderground v.1.15,2016-09-28 16:27:00,
2016-09-28 10:33:00,56.5,29.1,30.07,SE,145,4.0,5.0,35,0.00,,,0.00,Wunderground v.1.15,2016-09-28 16:33:00,
2016-09-28 10:40:00,56.2,28.2,30.07,ESE,104,4.0,5.0,34,0.00,,,0.00,Wunderground v.1.15,2016-09-28 16:40:00,
2016-09-28 10:46:00,57.0,28.9,30.07,SE,134,4.0,4.0,34,0.00,,,0.00,Wunderground v.1.15,2016-09-28 16:46:00,
2016-09-28 10:52:00,57.2,29.1,30.06,ESE,112,4.0,4.0,34,0.00,,,0.00,Wunderground v.1.15,2016-09-28 16:52:00,
2016-09-28 10:58:00,56.4,29.7,30.06,ESE,117,5.0,12.0,36,0.00,,,0.00,Wunderground v.1.15,2016-09-28 16:58:00,
2016-09-28 11:03:00,57.1,29.7,30.06,SE,139,5.0,6.0,35,0.00,,,0.00,Wunderground v.1.15,2016-09-28 17:03:00,
2016-09-28 11:10:00,56.9,30.2,30.06,ESE,118,4.0,10.0,36,0.00,,,0.00,Wunderground v.1.15,2016-09-28 17:10:00,
2016-09-28 11:16:00,57.0,31.0,30.06,East,98,5.0,9.0,37,0.00,,,0.00,Wunderground v.1.15,2016-09-28 17:16:00,
2016-09-28 11:22:00,57.5,30.7,30.06,ENE,65,4.0,9.0,36,0.00,,,0.00,Wunderground v.1.15,2016-09-28 17:22:00,
2016-09-28 11:28:00,57.6,30.1,30.06,ESE,105,5.0,9.0,35,0.00,,,0.00,Wunderground v.1.15,2016-09-28 17:28:00,
2016-09-28 11:34:00,58.4,30.8,30.06,East,84,4.0,6.0,35,0.00,,,0.00,Wunderground v.1.15,2016-09-28 17:34:00,
2016-09-28 11:40:00,58.6,31.7,30.06,East,86,4.0,7.0,36,0.00,,,0.00,Wunderground v.1.15,2016-09-28 17:40:00,
2016-09-28 11:46:00,58.6,31.0,30.05,East,89,4.0,10.0,35,0.00,,,0.00,Wunderground v.1.15,2016-09-28 17:46:00,
2016-09-28 11:52:00,58.9,30.6,30.05,SSW,195,5.0,5.0,34,0.00,,,0.00,Wunderground v.1.15,2016-09-28 17:52:00,
2016-09-28 12:02:00,59.1,31.4,30.05,SE,127,5.0,6.0,35,0.00,,,0.00,Wunderground v.1.15,2016-09-28 18:02:00,
2016-09-28 12:08:00,58.8,30.5,30.05,SE,131,4.0,7.0,34,0.00,,,0.00,Wunderground v.1.15,2016-09-28 18:08:00,
2016-09-28 12:14:00,58.7,30.4,30.05,ESE,117,4.0,4.0,34,0.00,,,0.00,Wunderground v.1.15,2016-09-28 18:14:00,
2016-09-28 12:20:00,58.7,31.1,30.05,SSE,150,4.0,5.0,35,0.00,,,0.00,Wunderground v.1.15,2016-09-28 18:20:00,
2016-09-28 12:26:00,58.5,31.6,30.05,SE,140,5.0,7.0,36,0.00,,,0.00,Wunderground v.1.15,2016-09-28 18:26:00,
2016-09-28 12:32:00,59.7,32.0,30.05,SSE,153,3.0,5.0,35,0.00,,,0.00,Wunderground v.1.15,2016-09-28 18:32:00,
2016-09-28 12:38:00,59.0,32.1,30.05,SSE,150,4.0,6.0,36,0.00,,,0.00,Wunderground v.1.15,2016-09-28 18:38:00,
2016-09-28 12:44:00,59.5,31.8,30.05,SE,128,3.0,4.0,35,0.00,,,0.00,Wunderground v.1.15,2016-09-28 18:44:00,
2016-09-28 12:50:00,60.7,32.1,30.04,East,95,3.0,6.0,34,0.00,,,0.00,Wunderground v.1.15,2016-09-28 18:50:00,